This is the latest recevied weather packets stored in our database for station/object W4KAB. If no packets are shown the sender has not sent any weather packets the latest 10 day(s).
| Time | Temp. | Humidity | Pressure | Rain* | Wind** | Luminosity | Snow |
|---|---|---|---|---|---|---|---|
| 1777550535 | 13.33° C | 86% | 1013.4 hPa | 0 mm | - | 7 W/m² | - |
| 1777550231 | 13.33° C | 86% | 1013.6 hPa | 0 mm | - | 8 W/m² | - |
| 1777549928 | 13.33° C | 86% | 1013.4 hPa | 0 mm | - | 7 W/m² | - |
| 1777549624 | 13.33° C | 86% | 1013.4 hPa | 0 mm | - | 9 W/m² | - |
| 1777549319 | 12.78° C | 86% | 1013.3 hPa | 0 mm | - | 9 W/m² | - |
| 1777549017 | 12.78° C | 87% | 1013 hPa | 0 mm | - | 6 W/m² | - |
| 1777548713 | 12.78° C | 87% | 1012.6 hPa | 0 mm | - | 3 W/m² | - |
| 1777548410 | 12.78° C | 87% | 1012.5 hPa | 0 mm | - | 4 W/m² | - |
| 1777548107 | 12.78° C | 88% | 1012.6 hPa | 0 mm | - | 4 W/m² | - |
| 1777547803 | 12.78° C | 87% | 1012.6 hPa | 0 mm | - | 4 W/m² | - |
| 1777547499 | 12.78° C | 86% | 1012.1 hPa | 0 mm | - | 1 W/m² | - |
| 1777547197 | 12.78° C | 85% | 1011.7 hPa | 0 mm | - | 1 W/m² | - |
| 1777546894 | 13.33° C | 85% | 1011.8 hPa | 0 mm | - | 1 W/m² | - |
| 1777546591 | 13.33° C | 84% | 1011.7 hPa | 0 mm | - | 0 W/m² | - |
| 1777546287 | 13.33° C | 84% | 1012 hPa | 0 mm | - | 0 W/m² | - |
| 1777545985 | 13.33° C | 82% | 1012 hPa | 0 mm | - | 0 W/m² | - |
| 1777545681 | 12.78° C | 83% | 1011.7 hPa | 0 mm | - | 0 W/m² | - |
| 1777545378 | 12.78° C | 84% | 1011.7 hPa | 0 mm | - | 0 W/m² | - |
| 1777545075 | 12.78° C | 85% | 1011.5 hPa | 0 mm | - | 0 W/m² | - |
| 1777544772 | 12.78° C | 86% | 1011 hPa | 0 mm | - | 0 W/m² | - |
| 1777544468 | 13.33° C | 86% | 1011 hPa | 0 mm | - | 0 W/m² | - |
| 1777544164 | 13.33° C | 85% | 1011.3 hPa | 0 mm | - | 0 W/m² | - |
| 1777543862 | 13.33° C | 85% | 1011.2 hPa | 0 mm | - | 0 W/m² | - |
| 1777543558 | 13.33° C | 82% | 1011.4 hPa | 0 mm | - | 0 W/m² | - |
| 1777543254 | 13.89° C | 84% | 1011.5 hPa | 0 mm | - | 0 W/m² | - |
* Rain latest hour (hover to see other rain measurements)
** Current wind speed in m/s (hover to see current wind gust speed)